User: anonymous
Location: NJAA Observatory
(40.6819°N, 74.8979°W)
Time: 17:04:17
(UTC-04:00)
Language:

Landsat 5 - Orbit

View from above orbital plane
View from above orbital plane
View from above satellite
View from above satellite

Ground track
Ground track

The orbit data is extracted from the following two-line orbital elements,

1 14780U 84021A   14244.34984962  .00000945  00000-0  99465-4 0  4052
2 14780 098.0509 322.9631 0094317 283.1091 115.3329 14.88824214623958
Epoch (UTC): 01 September 2014 08:23:47
Eccentricity: 0.0094317
inclination: 98.0509°
perigee height: 536 km
apogee height: 667 km
right ascension of ascending node: 322.9631°
argument of perigee: 283.1091°
revolutions per day: 14.88824214
mean anomaly at epoch: 115.3329°
orbit number at epoch: 62395

The dashed part of the orbit path shows where the satellite is in the earth's shadow,  

DLR